Regional Weather Roundup
Issued by NWS

Home | Current Version | Previous Version | Graphics & Text | Print | Product List | Glossary On
Versions: 1 2 3 4 5 6 7 8 9 10 11 12 13 14 15 16 17 18 19 20 21 22 23 24 25 26 27 28 29 30 31 32 33 34 35 36 37 38 39 40 41 42 43 44 45 46 47 48 49 50
000
ASUS43 KLMK 281902
RWRKY
KENTUCKY REGIONAL WEATHER ROUNDUP
NATIONAL WEATHER SERVICE LOUISVILLE KY
300 PM EDT FRI APR 28 2017

NOTE "FAIR" INDICATES FEW OR NO CLOUDS BELOW 12,000 FEET
WITH NO SIGNIFICANT WEATHER AND/OR OBSTRUCTIONS TO VISIBILITY.

KYZ001>023-026-027-061>063-070>075-282000-
WESTERN AND SOUTH CENTRAL KENTUCKY

CITY           SKY/WX    TMP DP  RH WIND       PRES   REMARKS
PADUCAH        CLOUDY    75  65  70 S7        29.77F
HENDERSON      PTSUNNY   72  59  63 SE9       29.83F
OWENSBORO      CLOUDY    75  61  61 SE14      29.85F
HOPKINSVILLE   CLOUDY    71  69  91 S9        29.85F
BOWLING GREEN  PTSUNNY   81  66  60 S14       29.89F
GLASGOW        NOT AVBL
$$

KYZ024-025-028>034-038-045-046-053-282000-
NORTH CENTRAL KENTUCKY

CITY           SKY/WX    TMP DP  RH WIND       PRES   REMARKS
LOUISVILLE/SDF CLOUDY    75  58  55 SE8       29.90F
LOUISVILLE/LOU CLOUDY    75  59  57 S8        29.91F
FORT KNOX      CLOUDY    75  60  58 SE10      29.89F
$$

KYZ035>037-039>044-047>052-055>060-089>105-282000-
NORTHEAST KENTUCKY

CITY           SKY/WX    TMP DP  RH WIND       PRES   REMARKS
LEXINGTON      MOSUNNY   77  55  46 CALM      29.95F
COVINGTON      CLOUDY    70  55  59 SE9       29.96F
FRANKFORT      CLOUDY    77  54  44 S3        29.93F
$$

KYZ054-064>069-076>088-106>120-282000-
SOUTHEAST KENTUCKY

CITY           SKY/WX    TMP DP  RH WIND       PRES   REMARKS
JACKSON        CLOUDY    81  54  39 VRB3      29.97F
LONDON         SUNNY     80  56  43 S12G20    29.96F
SOMERSET       NOT AVBL
MIDDLESBORO    MOSUNNY   80  61  51 S7G18     29.99F
MONTICELLO     PTCLDY    81  61  50 SE10G18   29.95S
$$





USA.gov is the U.S. government's official web portal to all federal, state and local government web resources and services.